User: anonymous   Login
Location: Newark
(46.9000°N, 28.3500°E)
Time: 14:10:13
(UTC+00:00)
Language:

Explorer 11/Cluster Stage 4 - Orbit

View from above orbital plane
View from above orbital plane
View from above satellite
View from above satellite

Ground track
Ground track

The orbit data is extracted from the following two-line orbital elements,

1   107U 61013A   19234.89589750 +.00000274 +00000-0 +13704-4 0  9991
2   107 028.7913 073.0745 0547297 239.0968 115.4683 14.08818424923942
Epoch (UTC): 22 August 2019 21:30:05
Eccentricity: 0.0547297
inclination: 28.7913°
perigee height: 467 km
apogee height: 1260 km
right ascension of ascending node: 73.0745°
argument of perigee: 239.0968°
revolutions per day: 14.08818424
mean anomaly at epoch: 115.4683°
orbit number at epoch: 92394

The dashed part of the orbit path shows where the satellite is in the earth's shadow,  

DLR